Flag for Germany Weather past 2 weeks in Hattingen, North Rhine-Westphalia, Germany

Now
72 °F

Scattered clouds.


Feels Like: 77 °F
Forecast: 56 / 75 °F
Wind: 5 mph from North

Location: Essen

Current Time: Jul 30, 2014 at 3:18:07 PM

Latest Report: Jul 30, 2014 at 3:00 PM


Visibility: 38 mi

Pressure: 29.90 "Hg

Humidity: 53%

Dew point: 54 °F

Location of HattingenLocation

Historic Weather in Hattingen — Graph

°F

Hattingen temperature yesterday

Maximum temperature yesterday: 78 °F (at 4:00 PM)
Minimum temperature yesterday: 62 °F (at 5:00 AM)
Average temperature yesterday: 69 °F

Past Weeks' High & Low Weather Summary

 TemperatureHumidityPressure
High92 °F (Jul 19, 5:00 PM)100% (Jul 26, 6:00 AM)30.19 "Hg (Jul 26, 6:00 AM)
Low59 °F (Jul 16, 6:00 AM)27% (Jul 19, 1:00 PM)29.75 "Hg (Jul 20, 5:00 AM)
Average71 °F71%29.96 "Hg
* Reported Jul 15 2:00 PM — Jul 30 2:00 PM, Hattingen, Weather by CustomWeather, © 2014

Note: Actual official high and low records may vary slightly from our data, if they occured in-between our weather recording intervals... More about our weather records

Advertising

Hattingen weather history for previous 24 hours

 ConditionsComfort  
Time TempWeatherWind HumidityBarometerVisibility
2:00 PM
Jul 30
71 °FScattered clouds.5 mph55%29.90 "Hg37 mi
1:00 PM69 °FPartly sunny.5 mph62%29.90 "Hg31 mi
12:00 PM68 °FScattered clouds.3 mph64%29.89 "Hg34 mi
11:00 AM67 °FPartly sunny.3 mph73%29.88 "Hg22 mi
10:00 AM65 °FOvercast.3 mph82%29.88 "Hg17 mi
9:00 AM63 °FLow clouds.3 mph87%29.88 "Hg10 mi
8:00 AM62 °FLow clouds.3 mph90%29.86 "Hg7 mi
7:00 AM62 °FLow clouds.5 mph92%29.85 "Hg6 mi
6:00 AM63 °FLow clouds.5 mph90%29.84 "Hg7 mi
5:00 AM63 °FLow clouds.5 mph92%29.83 "Hg5 mi
4:00 AM64 °FLow clouds.5 mph93%29.82 "Hg6 mi
3:00 AM65 °FLight rain. Low clouds.2 mph93%29.83 "Hg5 mi
2:00 AM66 °FLow clouds.3 mph90%29.83 "Hg8 mi
1:00 AM67 °FOvercast.5 mph88%29.82 "Hg7 mi
12:00 AM67 °FOvercast.2 mph90%29.83 "Hg10 mi
11:00 PM
Jul 29
66 °FOvercast.5 mph89%29.83 "Hg15 mi
10:00 PM71 °FDrizzle. Overcast.8 mph81%29.81 "Hg7 mi
9:00 PM71 °FLow clouds.3 mph80%29.80 "Hg7 mi
8:00 PM71 °FFog.1 mph92%29.78 "Hg2 mi
7:00 PM70 °FOvercast.2 mph95%29.78 "Hg2 mi
6:00 PM69 °FLow clouds.1 mph96%29.79 "Hg1 mi
5:00 PM78 °FScattered clouds.3 mph62%29.78 "Hg8 mi
4:00 PM78 °FOvercast.3 mph62%29.79 "Hg11 mi
3:00 PM75 °FOvercast.5 mph66%29.81 "Hg9 mi
Weather by CustomWeather, © 2014

See weather overviewHow to use our weather pages